AKST,Max TemperatureF,Mean TemperatureF,Min TemperatureF,Max Dew PointF,MeanDew PointF,Min DewpointF,Max Humidity, Mean Humidity, Min Humidity, Max Sea Level PressureIn, Mean Sea Level PressureIn, Min Sea Level PressureIn, Max VisibilityMiles, Mean VisibilityMiles, Min VisibilityMiles, Max Wind SpeedMPH, Mean Wind SpeedMPH, Max Gust SpeedMPH,PrecipitationIn, CloudCover, Events, WindDirDegrees
2012-12-1,28,26,25,-13,-16,-18,18,15,12,29.54,29.45,29.36,10,10,9,41,37,59,0.00,0,,23
2012-12-2,27,18,9,-3,-10,-15,54,30,15,29.38,29.31,29.28,10,10,8,40,20,53,0.00,0,Snow,52
2012-12-3,19,12,3,-3,-10,-16,66,39,22,29.54,29.47,29.33,10,10,8,41,27,58,0.00,2,Snow,52
2012-12-4,1,-4,-9,-5,-9,-14,83,76,69,29.53,29.50,29.48,10,10,8,5,1,,0.00,0,,27
2012-12-5,-4,-6,-9,-7,-12,-16,87,79,68,29.62,29.57,29.52,10,10,9,4,0,,0.00,0,,90
2012-12-6,0,-4,-7,-2,-8,-12,95,80,72,29.91,29.76,29.64,10,10,8,5,1,,0.00,0,,100
2012-12-7,0,-3,-6,-5,-8,-11,91,81,72,29.95,29.92,29.91,10,10,8,5,0,,0.00,0,,85
2012-12-8,21,8,-4,12,3,-9,83,61,35,29.96,29.56,29.29,10,7,1,23,11,30,0.00,7,Snow,359
2012-12-9,27,23,19,18,15,10,89,74,57,29.52,29.39,29.28,10,9,3,17,9,22,0.00,8,Snow,12
2012-12-10,27,23,19,25,22,16,100,87,69,29.76,29.60,29.53,10,5,1,8,3,,0.02,8,Rain-Snow,356
2012-12-11,26,22,19,25,22,17,100,91,85,29.92,29.80,29.62,10,7,1,12,2,,0.05,7,Snow,2
2012-12-12,33,28,24,30,25,21,100,92,84,29.60,29.32,29.22,10,3,1,16,8,23,0.19,8,Snow,331
2012-12-13,30,27,23,28,25,21,100,92,86,29.37,29.31,29.26,10,4,0,8,2,,0.05,8,Fog-Snow,56
2012-12-14,23,14,6,20,11,2,100,90,79,29.30,29.24,29.16,10,3,0,8,1,,0.00,4,Fog,354
2012-12-15,6,3,0,3,-3,-6,87,79,72,29.27,29.15,29.11,10,6,1,13,9,,0.00,8,Snow,345
2012-12-16,1,-6,-13,-4,-10,-18,91,81,72,29.66,29.46,29.25,10,9,2,7,2,,0.00,4,Snow,338
2012-12-17,-11,-14,-18,-14,-22,-26,91,75,64,29.79,29.72,29.58,10,10,8,4,1,,0.00,1,,353
2012-12-18,0,-9,-18,-4,-13,-23,91,79,67,29.55,29.47,29.44,10,7,0,6,2,,0.00,4,Fog,118
2012-12-19,15,0,-14,7,-11,-20,92,80,61,29.85,29.74,29.51,10,7,0,36,3,48,0.00,1,Fog-Snow,23
2012-12-20,21,18,14,9,5,-4,73,58,33,30.06,29.95,29.82,10,5,1,48,40,69,0.38,0,Snow,23
2012-12-21,23,21,19,-5,-7,-9,33,30,26,30.06,29.99,29.88,10,9,7,44,39,64,0.00,0,Snow,28
2012-12-22,19,11,3,-8,-11,-14,58,35,28,29.86,29.78,29.72,10,10,8,45,30,62,0.00,1,Snow,36
2012-12-23,3,-1,-5,-5,-8,-11,83,71,53,29.75,29.68,29.60,10,10,8,7,2,17,0.00,1,,72
2012-12-24,28,10,0,20,6,-8,86,66,39,29.60,29.52,29.47,10,6,1,29,14,34,0.02,6,Snow,18
2012-12-25,35,27,19,28,12,6,75,61,49,29.65,29.59,29.53,10,7,2,21,10,26,0.00,7,Snow,355
2012-12-26,28,21,14,18,13,8,100,72,49,29.64,29.52,29.38,10,7,0,21,6,29,0.00,4,Fog,355
2012-12-27,30,28,27,16,14,12,61,57,51,29.44,29.36,29.31,10,10,10,17,14,25,0.00,6,,350
2012-12-28,46,36,26,25,16,14,61,55,42,29.59,29.54,29.45,10,10,10,18,15,28,0.00,3,,356
2012-12-29,45,40,35,34,25,18,81,55,37,29.53,29.43,29.27,10,10,7,26,17,44,0.04,6,Rain,87
2012-12-30,45,42,39,35,31,25,86,67,53,29.44,29.21,29.09,10,10,5,28,16,45,0.10,6,Rain,110
2012-12-31,43,38,33,30,25,18,72,56,40,29.79,29.69,29.47,10,10,10,23,14,32,0.00,4,,122